| time (UTC) | temp F | wind direction | speed MPH | gust MPH | rain 1hr in | rain 24hr in | rain mn in | humidity % | barometer mb |
| 20260505083110 | 54 | 299 | 0.0 | 1.0 | 0.00 | 0.35 | 0.35 | 90 | 1013.8 |
| 20260505081603 | 54 | 299 | 0.0 | 0.0 | 0.00 | 0.35 | 0.35 | 91 | 1013.7 |
| 20260505074554 | 54 | 299 | 0.0 | 0.0 | 0.00 | 0.35 | 0.35 | 92 | 1013.9 |
| 20260505073059 | 54 | 299 | 0.0 | 0.0 | 0.01 | 0.35 | 0.35 | 93 | 1013.9 |
| 20260505071612 | 53 | 299 | 0.0 | 0.0 | 0.02 | 0.35 | 0.35 | 93 | 1014.1 |
| 20260505070053 | 53 | 299 | 0.0 | 0.0 | 0.04 | 0.35 | 0.35 | 94 | 1014.2 |
| 20260505064549 | 53 | 299 | 0.0 | 0.0 | 0.06 | 0.35 | 0.35 | 93 | 1014.3 |
| 20260505063052 | 53 | 299 | 0.0 | 0.0 | 0.09 | 0.34 | 0.34 | 93 | 1014.4 |
| 20260505061547 | 52 | 299 | 0.0 | 0.0 | 0.13 | 0.33 | 0.33 | 92 | 1014.5 |
| 20260505060058 | 52 | 299 | 0.0 | 0.0 | 0.12 | 0.31 | 0.31 | 92 | 1014.5 |
| 20260505054546 | 52 | 299 | 0.0 | 0.0 | 0.12 | 0.28 | 0.28 | 92 | 1014.4 |
| 20260505053046 | 52 | 299 | 0.0 | 1.0 | 0.10 | 0.24 | 0.24 | 91 | 1014.4 |
| 20260505051548 | 52 | 299 | 0.0 | 1.0 | 0.09 | 0.20 | 0.20 | 91 | 1014.3 |
| 20260505041551 | 53 | 299 | 0.0 | 0.0 | 0.08 | 0.12 | 0.12 | 91 | 1014.4 |
| 20260505040041 | 53 | 299 | 0.0 | 0.0 | 0.06 | 0.09 | 0.09 | 91 | 1014.4 |
| 20260505034538 | 53 | 299 | 0.0 | 0.0 | 0.05 | 0.07 | 0.07 | 90 | 1014.5 |
| 20260505033036 | 53 | 299 | 0.0 | 0.0 | 0.03 | 0.06 | 0.06 | 88 | 1014.5 |
| 20260505031534 | 53 | 299 | 0.0 | 0.0 | 0.02 | 0.04 | 0.04 | 87 | 1014.4 |
| 20260505030031 | 53 | 299 | 0.0 | 0.0 | 0.02 | 0.03 | 0.03 | 87 | 1014.5 |
| 20260505024529 | 54 | 299 | 0.0 | 0.0 | 0.01 | 0.02 | 0.02 | 86 | 1014.7 |
| 20260505023028 | 54 | 299 | 0.0 | 0.0 | 0.02 | 0.02 | 0.02 | 85 | 1014.8 |
| 20260505021525 | 54 | 299 | 0.0 | 0.0 | 0.02 | 0.02 | 0.02 | 86 | 1015.1 |
| 20260505020033 | 54 | 299 | 0.0 | 0.0 | 0.02 | 0.02 | 0.02 | 84 | 1015.2 |
| 20260505014531 | 55 | 299 | 0.0 | 0.0 | 0.02 | 0.02 | 0.02 | 83 | 1015.4 |
| 20260505013018 | 55 | 299 | 0.0 | 0.0 | 0.01 | 0.01 | 0.01 | 81 | 1015.6 |
| 20260505011514 | 56 | 299 | 0.0 | 0.0 | 0.00 | 0.00 | 0.00 | 80 | 1015.8 |
| 20260505010009 | 56 | 300 | 0.0 | 0.0 | 0.00 | 0.00 | 0.00 | 78 | 1015.9 |
| 20260505004508 | 57 | 300 | 0.0 | 0.0 | 0.00 | 0.00 | 0.00 | 74 | 1016.2 |
| 20260505003004 | 57 | 300 | 0.0 | 0.0 | 0.00 | 0.00 | 0.00 | 71 | 1016.3 |
| 20260505001502 | 58 | 300 | 0.0 | 0.0 | 0.00 | 0.00 | 0.00 | 66 | 1016.4 |
| 20260505000107 | 59 | 300 | 0.0 | 0.0 | 0.00 | 0.00 | 0.00 | 66 | 1016.5 |
| 20260504234555 | 59 | 300 | 0.0 | 0.0 | 0.00 | 0.00 | 0.00 | 60 | 1016.6 |
| 20260504233057 | 59 | 300 | 0.0 | 6.0 | 0.00 | 0.00 | 0.00 | 59 | 1016.9 |
| 20260504231553 | 60 | 300 | 0.0 | 5.0 | 0.00 | 0.00 | 0.00 | 57 | 1017.0 |
| 20260504230050 | 60 | 311 | 0.0 | 5.0 | 0.00 | 0.00 | 0.00 | 57 | 1017.3 |
| 20260504224549 | 60 | 287 | 1.0 | 5.0 | 0.00 | 0.00 | 0.00 | 58 | 1017.4 |
| 20260504223101 | 60 | 286 | 1.0 | 8.0 | 0.00 | 0.00 | 0.00 | 57 | 1017.4 |
| 20260504221545 | 59 | 286 | 1.0 | 9.0 | 0.00 | 0.00 | 0.00 | 60 | 1017.4 |
| 20260504220041 | 59 | 308 | 0.0 | 3.0 | 0.00 | 0.00 | 0.00 | 61 | 1017.8 |
| 20260504214541 | 59 | 308 | 0.0 | 4.0 | 0.00 | 0.00 | 0.00 | 63 | 1018.0 |
| 20260504213043 | 59 | 309 | 0.0 | 4.0 | 0.00 | 0.00 | 0.00 | 61 | 1018.2 |
| 20260504211609 | 59 | 293 | 0.0 | 6.0 | 0.00 | 0.00 | 0.00 | 62 | 1018.4 |
| 20260504210044 | 59 | 304 | 0.0 | 9.0 | 0.00 | 0.00 | 0.00 | 61 | 1018.4 |
| 20260504204542 | 59 | 300 | 2.0 | 9.0 | 0.00 | 0.00 | 0.00 | 61 | 1018.6 |
| 20260504203039 | 59 | 307 | 5.0 | 11.0 | 0.00 | 0.00 | 0.00 | 61 | 1018.7 |
| 20260504201539 | 59 | 311 | 0.0 | 9.0 | 0.00 | 0.00 | 0.00 | 60 | 1018.7 |
| 20260504200038 | 59 | 316 | 3.0 | 12.0 | 0.00 | 0.00 | 0.00 | 60 | 1018.9 |
| 20260504194542 | 60 | 313 | 4.0 | 10.0 | 0.00 | 0.00 | 0.00 | 58 | 1018.8 |
| 20260504193037 | 60 | 314 | 2.0 | 10.0 | 0.00 | 0.00 | 0.00 | 56 | 1018.6 |
| 20260504191536 | 61 | 322 | 4.0 | 12.0 | 0.00 | 0.00 | 0.00 | 56 | 1018.4 |
| 20260504190036 | 62 | 311 | 3.0 | 12.0 | 0.00 | 0.00 | 0.00 | 54 | 1018.1 |
| 20260504184544 | 63 | 318 | 6.0 | 17.0 | 0.00 | 0.00 | 0.00 | 50 | 1017.7 |
| 20260504183032 | 63 | 333 | 1.0 | 6.0 | 0.00 | 0.00 | 0.00 | 53 | 1017.4 |
| 20260504181535 | 63 | 335 | 0.0 | 0.0 | 0.00 | 0.00 | 0.00 | 63 | 1017.2 |
| 20260504180032 | 63 | 335 | 0.0 | 0.0 | 0.00 | 0.00 | 0.00 | 63 | 1017.0 |
| 20260504174530 | 63 | 335 | 0.0 | 0.0 | 0.00 | 0.00 | 0.00 | 63 | 1016.9 |
| 20260504173030 | 64 | 335 | 0.0 | 0.0 | 0.00 | 0.00 | 0.00 | 62 | 1016.8 |
| 20260504171530 | 64 | 335 | 0.0 | 0.0 | 0.00 | 0.00 | 0.00 | 60 | 1016.7 |